Location: ????????
(55.8351°N, 38.7040°E)
Time: 19:18:42
(UTC+00:00)

Cosmos 1371 Rocket - Pass Details

Date: 14 April 2024
Orbit: 752 x 787 km, 74.0° (Epoch: 18 May)

Event Time Altitude Azimuth Distance (km) Brightness Sun altitude
Rises 01:12:27 0° 330° (NNW) 3,232 7.3 -9.6°
Reaches altitude 10° 01:14:51 10° 326° (NW) 2,307 6.5 -9.3°
Maximum altitude 01:19:57 56° 250° (WSW) 912 4.1 -8.7°
Drops below altitude 10° 01:25:05 10° 173° (S) 2,314 6.3 -8.1°
Sets 01:27:30 0° 169° (S) 3,243 7.0 -7.8°
